Location: �clusier
(49.9361°N, 2.7869°E)
Time: 22:06:30
(UTC+00:00)

SJ 16-02 - Pass Details

Date: 16 June 2021
Orbit: 606 x 616 km, 75.0° (Epoch: 02 August)

Event Time Altitude Azimuth Distance (km) Brightness Sun altitude
Rises 23:47:49 0° 340° (NNW) 2,878 6.2 -16.7°
Reaches altitude 10° 23:50:06 10° 345° (NNW) 1,969 5.1 -16.7°
Maximum altitude 23:54:26 56° 64° (ENE) 724 1.8 -16.7°
Enters shadow 23:57:08 22° 136° (SE) 1,355 2.7 -16.7°
